User: anonymous   Login
Location: Fauquembergues
(50.6005°N, 2.0987°E)
Time: 20:14:02
(UTC+00:00)
Language:

Cosmos 2061 Rocket - Orbit

View from above orbital plane
View from above orbital plane
View from above satellite
View from above satellite

Ground track
Ground track

The orbit data is extracted from the following two-line orbital elements,

1 20528U 90023B   20269.90512109 +.00000163 +00000-0 +16075-3 0  9999
2 20528 082.9321 259.2080 0030597 301.2274 121.2537 13.72876171528967
Epoch (UTC): 25 September 2020 21:43:22
Eccentricity: 0.0030597
inclination: 82.9321°
perigee height: 967 km
apogee height: 1012 km
right ascension of ascending node: 259.2080°
argument of perigee: 301.2274°
revolutions per day: 13.72876171
mean anomaly at epoch: 121.2537°
orbit number at epoch: 52896

The dashed part of the orbit path shows where the satellite is in the earth's shadow,  

DLR